Wilson Heron — 9HJW9 — position and weather

sailwx.info

Track history (hours):
 
Tides and Currents Weather Stations Pressure Air Temp Water Temp Dewpoint Dewpoint Depression Visibility Wind Speed Wind Dir Waves Ship Positions

Wilson Heron

Last reported at 2014-Oct-31 04:33 UTC. Time now 2014-Oct-31 15:49 UTC.
Position N 58°18' E 006°13'.

Length 91 m; draft 4 m.

Type: Cargo ship. MMSI: 249075000.

Date/timePositionNaut miles runAvg speedWind from/ knotsBaromVisibWave heightAir tempDewpointWater temp
2014-Oct-31 04:33N 58°18' E 006°13'2 2.0
2014-Oct-31 03:33N 58°17' E 006°11'4 4.2
2014-Oct-31 02:33N 58°14' E 006°16'66 8.3
2014-Oct-30 18:33N 57°60' E 008°18'9 9.2
2014-Oct-30 17:33N 58°03' E 008°34'10 9.6
2014-Oct-30 16:33N 58°11' E 008°46'1010.2
2014-Oct-30 15:33N 58°19' E 008°58'53 8.8
2014-Oct-30 09:32N 59°08' E 009°37'0 0.0
2014-Oct-30 08:26N 59°08' E 009°37'0 0.0
2014-Oct-30 06:29N 59°08' E 009°37'0 0.0
2014-Oct-30 05:32N 59°08' E 009°37'0 0.0
2014-Oct-30 04:17N 59°08' E 009°37'0 0.0
2014-Oct-30 03:17N 59°08' E 009°37'0 0.0
2014-Oct-30 02:32N 59°08' E 009°37'0 0.0
2014-Oct-30 00:17N 59°08' E 009°37'0 0.0
2014-Oct-29 23:17N 59°08' E 009°37'0 0.0
2014-Oct-29 22:23N 59°08' E 009°37'1 0.3
2014-Oct-29 18:17N 59°07' E 009°36'6 8.0
2014-Oct-29 17:33N 59°02' E 009°43'11 3.5
2014-Oct-29 14:29N 58°52' E 009°44'112 7.0
2014-Oct-28 22:33N 58°05' E 006°28'10 9.8
2014-Oct-28 21:33N 58°12' E 006°14'9 9.1
2014-Oct-28 20:33N 58°18' E 006°02'9 8.8
2014-Oct-28 19:33N 58°24' E 005°49'8 8.5
2014-Oct-28 18:33N 58°30' E 005°38'20 8.4
2014-Oct-28 16:14N 58°46' E 005°17'5 7.3
2014-Oct-28 15:34N 58°50' E 005°12'7 6.7
2014-Oct-28 14:33N 58°56' E 005°05'6 6.0
2014-Oct-28 13:32N 59°02' E 004°60'  
2014-Oct-24 10:19N 66°30' E 011°46'4 5.9
2014-Oct-24 09:33N 66°33' E 011°53'10 7.1
2014-Oct-24 08:12N 66°41' E 012°07'50 8.7
2014-Oct-24 02:31N 67°13' E 013°44'8 8.7
2014-Oct-24 01:33N 67°14' E 014°06'9 8.8
2014-Oct-24 00:33N 67°20' E 014°21'9 9.4
2014-Oct-23 23:33N 67°28' E 014°34'3 0.1
2014-Oct-22 16:33N 67°30' E 014°39'1111.1
2014-Oct-22 15:33N 67°21' E 014°23'1110.6
2014-Oct-22 14:33N 67°13' E 014°05'9 9.1
2014-Oct-22 13:32N 67°13' E 013°40'4010.0
2014-Oct-22 09:29N 66°47' E 012°21'9 9.7
2014-Oct-22 08:33N 66°40' E 012°05'8 7.4
2014-Oct-22 07:28N 66°39' E 011°45'164 9.5
2014-Oct-21 14:17N 64°05' E 009°30'1810.5
2014-Oct-21 12:33N 63°48' E 009°14'1110.8
2014-Oct-21 11:32N 63°38' E 009°15'  
Track history (hours):
 
Tides and Currents Weather Stations Pressure Air Temp Water Temp Dewpoint Dewpoint Depression Visibility Wind Speed Wind Dir Waves Ship Positions

Wilson Heron

Last reported at 2014-Oct-31 04:33 UTC. Time now 2014-Oct-31 15:49 UTC.
Position N 58°18' E 006°13'.

Length 91 m; draft 4 m.

Type: Cargo ship. MMSI: 249075000.

Date/timePositionNaut miles runAvg speedWind from/ knotsBaromVisibWave heightAir tempDewpointWater temp
2014-Oct-31 04:33N 58°18' E 006°13'2 2.0
2014-Oct-31 03:33N 58°17' E 006°11'4 4.2
2014-Oct-31 02:33N 58°14' E 006°16'66 8.3
2014-Oct-30 18:33N 57°60' E 008°18'9 9.2
2014-Oct-30 17:33N 58°03' E 008°34'10 9.6
2014-Oct-30 16:33N 58°11' E 008°46'1010.2
2014-Oct-30 15:33N 58°19' E 008°58'53 8.8
2014-Oct-30 09:32N 59°08' E 009°37'0 0.0
2014-Oct-30 08:26N 59°08' E 009°37'0 0.0
2014-Oct-30 06:29N 59°08' E 009°37'0 0.0
2014-Oct-30 05:32N 59°08' E 009°37'0 0.0
2014-Oct-30 04:17N 59°08' E 009°37'0 0.0
2014-Oct-30 03:17N 59°08' E 009°37'0 0.0
2014-Oct-30 02:32N 59°08' E 009°37'0 0.0
2014-Oct-30 00:17N 59°08' E 009°37'0 0.0
2014-Oct-29 23:17N 59°08' E 009°37'0 0.0
2014-Oct-29 22:23N 59°08' E 009°37'1 0.3
2014-Oct-29 18:17N 59°07' E 009°36'6 8.0
2014-Oct-29 17:33N 59°02' E 009°43'11 3.5
2014-Oct-29 14:29N 58°52' E 009°44'112 7.0
2014-Oct-28 22:33N 58°05' E 006°28'10 9.8
2014-Oct-28 21:33N 58°12' E 006°14'9 9.1
2014-Oct-28 20:33N 58°18' E 006°02'9 8.8
2014-Oct-28 19:33N 58°24' E 005°49'8 8.5
2014-Oct-28 18:33N 58°30' E 005°38'20 8.4
2014-Oct-28 16:14N 58°46' E 005°17'5 7.3
2014-Oct-28 15:34N 58°50' E 005°12'7 6.7
2014-Oct-28 14:33N 58°56' E 005°05'6 6.0
2014-Oct-28 13:32N 59°02' E 004°60'  
2014-Oct-24 10:19N 66°30' E 011°46'4 5.9
2014-Oct-24 09:33N 66°33' E 011°53'10 7.1
2014-Oct-24 08:12N 66°41' E 012°07'50 8.7
2014-Oct-24 02:31N 67°13' E 013°44'8 8.7
2014-Oct-24 01:33N 67°14' E 014°06'9 8.8
2014-Oct-24 00:33N 67°20' E 014°21'9 9.4
2014-Oct-23 23:33N 67°28' E 014°34'3 0.1
2014-Oct-22 16:33N 67°30' E 014°39'1111.1
2014-Oct-22 15:33N 67°21' E 014°23'1110.6
2014-Oct-22 14:33N 67°13' E 014°05'9 9.1
2014-Oct-22 13:32N 67°13' E 013°40'4010.0
2014-Oct-22 09:29N 66°47' E 012°21'9 9.7
2014-Oct-22 08:33N 66°40' E 012°05'8 7.4
2014-Oct-22 07:28N 66°39' E 011°45'164 9.5
2014-Oct-21 14:17N 64°05' E 009°30'1810.5
2014-Oct-21 12:33N 63°48' E 009°14'1110.8
2014-Oct-21 11:32N 63°38' E 009°15'  

Dump ship's entire track history